Location: Cheching
(60.0667°N, 164.2167°W)
Time: 20:54:19
(UTC+00:00)

LilacSat-2 - Pass Details

Date: 24 January 2021
Orbit: 512 x 534 km, 97.5° (Epoch: 07 March)

Event Time Altitude Azimuth Distance (km) Brightness Sun altitude
Rises 16:48:16 0° 17° (NNE) 2,691 ? -19.0°
Reaches altitude 10° 16:50:25 10° 22° (NNE) 1,798 ? -18.7°
Maximum altitude 16:54:14 55° 101° (ESE) 649 ? -18.2°
Drops below altitude 10° 16:58:03 10° 181° (S) 1,791 ? -17.8°
Sets 17:00:11 0° 185° (S) 2,678 ? -17.5°
